Location: Bord�res
(43.2000°N, 0.2167°W)
Time: 12:13:54
(UTC+00:00)

Cosmos 2084 Rocket - Pass Details

Date: 03 March 2021
Orbit: 527 x 653 km, 62.8° (Epoch: 20 April)

Event Time Altitude Azimuth Distance (km) Brightness Sun altitude
Rises 18:23:20 0° 328° (NNW) 2,802 7.4 -6.4°
Reaches altitude 10° 18:25:39 10° 335° (NNW) 1,922 6.4 -6.8°
Maximum altitude 18:29:46 40° 46° (NE) 893 4.1 -7.6°
Drops below altitude 10° 18:34:01 10° 117° (ESE) 1,986 5.6 -8.3°
Enters shadow 18:34:46 - 120° (ESE) 2,266 5.9 -8.5°
